• In Hungary
  • List of Countries
  • For 7 days
  • Water Temperature
  • Satellite Maps
  • Weather Map
  • News
  • Weather Widgets
  • user-avatar
    Login

    Hourly Weather Molza

    Today, 22 September, Saturday

    Time Temperature Precipitation Wind Pressure Humidity
    00:00 +17°C° 1.5 mm 6 mps 746 mmHg 78%
    01:00 +15°C° 1.5 mm 6 mps 746 mmHg 87%
    02:00 +14°C° 0.7 mm 6 mps 747 mmHg 84%
    03:00 +13°C° 0.7 mm 5 mps 748 mmHg 81%
    04:00 +12°C° 0.7 mm 5 mps 749 mmHg 79%
    05:00 +12°C° 0 mm 5 mps 749 mmHg 77%
    06:00 +12°C° 0 mm 5 mps 750 mmHg 75%
    07:00 +11°C° 0 mm 6 mps 750 mmHg 73%
    08:00 +13°C° 0 mm 6 mps 750 mmHg 68%
    09:00 +14°C° 0 mm 7 mps 750 mmHg 63%
    10:00 +15°C° 0 mm 7 mps 751 mmHg 58%
    11:00 +15°C° 0 mm 7 mps 751 mmHg 57%
    12:00 +15°C° 0 mm 7 mps 751 mmHg 56%
    13:00 +15°C° 0 mm 7 mps 751 mmHg 55%
    14:00 +15°C° 0.1 mm 6 mps 751 mmHg 56%
    15:00 +15°C° 0.1 mm 6 mps 751 mmHg 57%
    16:00 +15°C° 0.1 mm 5 mps 751 mmHg 58%
    17:00 +14°C° 0.1 mm 5 mps 751 mmHg 62%
    18:00 +13°C° 0.1 mm 4 mps 751 mmHg 67%
    19:00 +12°C° 0.1 mm 4 mps 751 mmHg 72%
    20:00 +11°C° 0 mm 4 mps 751 mmHg 72%
    21:00 +11°C° 0 mm 4 mps 751 mmHg 72%
    22:00 +11°C° 0 mm 4 mps 751 mmHg 73%
    23:00 +10°C° 0 mm 5 mps 751 mmHg 72%

    Tomorrow, 23 September, Sunday

    Time Temperature Precipitation Wind Pressure Humidity
    00:00 +10°C° 0 mm 5 mps 751 mmHg 72%
    01:00 +10°C° 0 mm 5 mps 750 mmHg 72%
    02:00 +9°C° 0 mm 5 mps 750 mmHg 74%
    03:00 +9°C° 0 mm 5 mps 750 mmHg 75%
    04:00 +8°C° 0 mm 5 mps 750 mmHg 77%
    05:00 +8°C° 0 mm 5 mps 750 mmHg 76%
    06:00 +9°C° 0 mm 6 mps 750 mmHg 75%
    07:00 +9°C° 0 mm 6 mps 750 mmHg 74%
    08:00 +10°C° 0 mm 7 mps 750 mmHg 69%
    09:00 +11°C° 0 mm 7 mps 750 mmHg 64%
    10:00 +14°C° 0 mm 7 mps 750 mmHg 59%
    11:00 +14°C° 0 mm 7 mps 750 mmHg 57%
    12:00 +15°C° 0 mm 6 mps 750 mmHg 55%
    13:00 +16°C° 0 mm 6 mps 750 mmHg 52%
    14:00 +15°C° 0 mm 6 mps 750 mmHg 53%
    15:00 +15°C° 0 mm 5 mps 749 mmHg 55%
    16:00 +15°C° 0 mm 4 mps 749 mmHg 56%
    17:00 +14°C° 0 mm 4 mps 748 mmHg 59%
    18:00 +12°C° 0 mm 3 mps 748 mmHg 63%
    19:00 +12°C° 0 mm 2 mps 747 mmHg 66%
    20:00 +12°C° 0 mm 2 mps 747 mmHg 67%
    21:00 +12°C° 0 mm 2 mps 746 mmHg 68%
    22:00 +12°C° 0 mm 1 mps 746 mmHg 69%
    23:00 +11°C° 0.7 mm 1 mps 745 mmHg 75%

    Day after tomorrow, 24 September, Monday

    Time Temperature Precipitation Wind Pressure Humidity
    00:00 +11°C° 0.7 mm 1 mps 744 mmHg 80%
    01:00 +10°C° 0.7 mm 1 mps 743 mmHg 86%
    02:00 +9°C° 1.4 mm 2 mps 743 mmHg 87%
    03:00 +9°C° 1.4 mm 3 mps 742 mmHg 89%
    04:00 +8°C° 1.4 mm 4 mps 742 mmHg 91%
    05:00 +8°C° 0.6 mm 4 mps 743 mmHg 89%
    06:00 +8°C° 0.6 mm 5 mps 743 mmHg 87%
    07:00 +9°C° 0.6 mm 5 mps 744 mmHg 85%
    08:00 +10°C° 0.2 mm 6 mps 745 mmHg 78%
    09:00 +11°C° 0.2 mm 7 mps 745 mmHg 70%
    10:00 +11°C° 0.2 mm 8 mps 746 mmHg 63%
    11:00 +12°C° 0.3 mm 9 mps 747 mmHg 61%
    12:00 +12°C° 0.3 mm 9 mps 747 mmHg 59%
    13:00 +12°C° 0.3 mm 9 mps 748 mmHg 58%
    14:00 +11°C° 0.3 mm 9 mps 749 mmHg 60%
    15:00 +10°C° 0.3 mm 9 mps 749 mmHg 63%
    16:00 +10°C° 0.3 mm 8 mps 750 mmHg 65%
    17:00 +9°C° 0.1 mm 7 mps 751 mmHg 67%
    18:00 +8°C° 0.1 mm 6 mps 752 mmHg 69%
    19:00 +7°C° 0.1 mm 6 mps 753 mmHg 71%
    20:00 +7°C° 0.1 mm 5 mps 754 mmHg 72%
    21:00 +6°C° 0.1 mm 5 mps 755 mmHg 72%
    22:00 +6°C° 0.1 mm 4 mps 755 mmHg 73%
    23:00 +6°C° 0.2 mm 4 mps 756 mmHg 73%

    25 September, Tuesday

    Time Temperature Precipitation Wind Pressure Humidity
    00:00 +6°C° 0.2 mm 5 mps 756 mmHg 74%
    01:00 +6°C° 0.2 mm 5 mps 757 mmHg 75%
    02:00 +6°C° 0.2 mm 5 mps 757 mmHg 74%
    03:00 +5°C° 0.2 mm 5 mps 757 mmHg 74%
    04:00 +5°C° 0.2 mm 5 mps 758 mmHg 74%
    05:00 +6°C° 0.2 mm 5 mps 758 mmHg 73%
    06:00 +6°C° 0.2 mm 5 mps 759 mmHg 71%
    07:00 +6°C° 0.2 mm 5 mps 759 mmHg 69%
    08:00 +8°C° 0.1 mm 6 mps 759 mmHg 62%
    09:00 +10°C° 0.1 mm 6 mps 759 mmHg 55%
    10:00 +11°C° 0.1 mm 7 mps 760 mmHg 48%
    11:00 +11°C° 0.1 mm 7 mps 759 mmHg 48%
    12:00 +12°C° 0.1 mm 8 mps 759 mmHg 48%
    13:00 +12°C° 0.1 mm 8 mps 758 mmHg 48%
    14:00 +11°C° 0.2 mm 8 mps 757 mmHg 54%
    15:00 +10°C° 0.2 mm 8 mps 756 mmHg 61%
    16:00 +9°C° 0.2 mm 8 mps 755 mmHg 67%
    17:00 +8°C° 1.9 mm 9 mps 755 mmHg 73%
    18:00 +7°C° 1.9 mm 9 mps 754 mmHg 79%
    19:00 +7°C° 1.9 mm 9 mps 753 mmHg 86%
    20:00 +7°C° 0.4 mm 8 mps 753 mmHg 83%
    21:00 +8°C° 0.4 mm 7 mps 753 mmHg 80%
    22:00 +7°C° 0.4 mm 6 mps 754 mmHg 77%
    23:00 +7°C° 0.3 mm 6 mps 754 mmHg 77%

    26 September, Wednesday

    Time Temperature Precipitation Wind Pressure Humidity
    00:00 +7°C° 0.3 mm 6 mps 754 mmHg 77%
    01:00 +7°C° 0.3 mm 5 mps 754 mmHg 78%
    02:00 +7°C° 0.1 mm 5 mps 755 mmHg 77%
    03:00 +7°C° 0.1 mm 6 mps 755 mmHg 77%
    04:00 +7°C° 0.1 mm 6 mps 756 mmHg 77%
    05:00 +7°C° 0 mm 6 mps 756 mmHg 77%
    06:00 +8°C° 0 mm 6 mps 757 mmHg 77%
    07:00 +9°C° 0 mm 6 mps 758 mmHg 76%
    08:00 +10°C° 0 mm 6 mps 758 mmHg 72%
    09:00 +11°C° 0 mm 6 mps 759 mmHg 67%
    10:00 +13°C° 0 mm 6 mps 760 mmHg 62%
    11:00 +14°C° 0 mm 5 mps 760 mmHg 59%
    12:00 +14°C° 0 mm 5 mps 760 mmHg 56%
    13:00 +15°C° 0 mm 4 mps 760 mmHg 53%
    14:00 +15°C° 0 mm 4 mps 760 mmHg 55%
    15:00 +14°C° 0 mm 3 mps 760 mmHg 56%
    16:00 +14°C° 0 mm 3 mps 760 mmHg 58%
    17:00 +13°C° 0 mm 3 mps 760 mmHg 61%
    18:00 +12°C° 0 mm 3 mps 760 mmHg 65%
    19:00 +12°C° 0 mm 3 mps 760 mmHg 68%
    20:00 +12°C° 0.1 mm 4 mps 760 mmHg 73%
    21:00 +12°C° 0.1 mm 4 mps 760 mmHg 77%
    22:00 +12°C° 0.1 mm 5 mps 759 mmHg 81%
    23:00 +12°C° 0.1 mm 5 mps 759 mmHg 81%

    27 September, Thursday

    Time Temperature Precipitation Wind Pressure Humidity
    00:00 +12°C° 0.1 mm 5 mps 758 mmHg 81%
    01:00 +11°C° 0.1 mm 6 mps 758 mmHg 80%
    02:00 +11°C° 0 mm 6 mps 757 mmHg 79%
    03:00 +10°C° 0 mm 6 mps 757 mmHg 78%
    04:00 +10°C° 0 mm 7 mps 756 mmHg 76%
    05:00 +10°C° 0 mm 7 mps 756 mmHg 76%
    06:00 +10°C° 0 mm 7 mps 755 mmHg 75%
    07:00 +10°C° 0 mm 8 mps 755 mmHg 74%
    08:00 +11°C° 0 mm 8 mps 755 mmHg 68%
    09:00 +12°C° 0 mm 8 mps 754 mmHg 62%
    10:00 +15°C° 0 mm 8 mps 754 mmHg 56%
    11:00 +16°C° 0 mm 8 mps 753 mmHg 53%
    12:00 +17°C° 0 mm 8 mps 753 mmHg 51%
    13:00 +17°C° 0 mm 8 mps 752 mmHg 48%
    14:00 +17°C° 0 mm 8 mps 752 mmHg 49%
    15:00 +17°C° 0 mm 7 mps 751 mmHg 50%
    16:00 +16°C° 0 mm 6 mps 750 mmHg 51%
    17:00 +16°C° 0 mm 6 mps 750 mmHg 53%
    18:00 +15°C° 0 mm 6 mps 749 mmHg 54%
    19:00 +14°C° 0 mm 6 mps 749 mmHg 55%
    20:00 +14°C° 0.4 mm 7 mps 748 mmHg 60%
    21:00 +12°C° 0.4 mm 7 mps 748 mmHg 66%
    22:00 +12°C° 0.4 mm 8 mps 748 mmHg 72%
    23:00 +11°C° 0.5 mm 7 mps 748 mmHg 75%
    Show more